Location: Cherry Springs State Park
(41.6616°N, 77.8240°W)
Time: 12:35:36
(UTC-04:00)

Amateur Radio Satellites - All Passes

Search period start: 28 May 2017 12:05
Search period end: 29 May 2017 12:05
Location: Cherry Springs State Park, 41.6616°N, 77.8240°W

Satellite Date Start Highest point End Downlink Frequencies (MHz)
Time Altitude Azimuth
EO-88 28 May 12:19:59 12:21:49 13° 295° (WNW) 12:23:38 145.990 - 145.960
NANOSAT C BR1 28 May 12:27:24 12:31:33 67° 259° (W) 12:35:43 145.865
RS-15 28 May 12:31:04 12:42:47 58° 248° (WSW) 12:53:55 29.354- 29.394
POLYITAN 1 28 May 12:33:55 12:37:59 50° 260° (W) 12:42:06 437.675
DUCHIFAT 1 28 May 12:37:05 12:41:11 58° 259° (W) 12:45:19 145.980
QB50P2 28 May 12:42:57 12:46:50 37° 262° (W) 12:50:46 145.880/145.840
O/OREOS (USA 219) 28 May 12:43:54 12:46:44 16° 53° (NE) 12:49:33 437.305
BUGSAT 1 28 May 12:47:30 12:51:22 53° 74° (ENE) 12:55:18 437.445
NO-84 28 May 12:53:19 12:55:12 13° 6° (N) 12:57:03 435.350 FM
LO-87 28 May 12:55:27 12:58:39 31° 288° (WNW) 13:01:50 145.935 - 145.965
ESTCUBE 1 28 May 13:04:03 13:08:32 64° 286° (WNW) 13:12:57 437.505/2401.250
EO-79 28 May 13:20:54 13:23:32 16° 268° (W) 13:26:11 145.935-145.965
BEESAT 2 28 May 13:23:16 13:24:57 12° 38° (NE) 13:26:38 435.950
SPROUT 28 May 13:30:16 13:34:32 66° 101° (E) 13:38:48 437.525
Gurwin Techsat 1B 28 May 13:33:43 13:38:35 38° 68° (ENE) 13:43:28 435.225
BEESAT 3 28 May 13:37:33 13:41:14 33° 50° (NE) 13:44:52 437.485
Oscar 19 28 May 13:39:43 13:44:53 71° 74° (ENE) 13:50:05 437.125/150
AO-85 28 May 13:42:24 13:46:26 75° 239° (WSW) 13:50:42 145.980
VELOX 1 28 May 13:51:08 13:55:31 78° 286° (WNW) 13:59:54 145.980
50 SAT 28 May 13:54:09 13:57:33 63° 102° (ESE) 14:00:53 437.505
YUBILEINY 28 May 14:01:14 14:09:11 40° 274° (W) 14:17:09 435.215
UKube-1 28 May 14:08:26 14:12:27 37° 98° (E) 14:16:26 .
AO-7 28 May 14:11:56 14:18:29 27° 54° (NE) 14:25:03 .
DX 1 28 May 14:20:06 14:24:26 76° 104° (ESE) 14:28:46 434.975-435.025
O/OREOS (USA 219) 28 May 14:22:05 14:26:32 57° 252° (WSW) 14:30:54 437.305
BUGSAT 1 28 May 14:25:40 14:27:04 12° 269° (W) 14:28:28 437.445
NO-84 28 May 14:30:36 14:33:57 26° 27° (NNE) 14:37:05 435.350 FM
ITAMSAT 1 28 May 14:46:48 14:51:03 27° 65° (ENE) 14:55:20 435.822/435.867
RS-15 28 May 14:51:41 14:52:13 10° 269° (W) 14:52:44 29.354- 29.394
BEESAT 2 28 May 14:59:15 15:03:21 87° 56° (ENE) 15:07:23 435.950
SPROUT 28 May 15:08:11 15:09:53 12° 298° (WNW) 15:11:36 437.525
Gurwin Techsat 1B 28 May 15:14:08 15:18:35 27° 265° (W) 15:23:05 435.225
BEESAT 3 28 May 15:15:28 15:18:39 23° 247° (WSW) 15:21:46 437.485
Oscar 19 28 May 15:22:04 15:24:42 14° 270° (W) 15:27:23 437.125/150
MOZHAYETS 4 28 May 15:29:51 15:32:26 15° 91° (E) 15:34:59
ITUPSAT 1 28 May 15:32:51 15:36:57 27° 96° (E) 15:41:01 437.325
UKube-1 28 May 15:45:04 15:48:13 20° 295° (WNW) 15:51:21 .
DX 1 28 May 15:58:48 15:59:59 11° 300° (WNW) 16:01:11 434.975-435.025
AO-7 28 May 16:02:13 16:10:29 75° 254° (WSW) 16:18:50 .
BEESAT 28 May 16:04:31 16:09:15 58° 101° (E) 16:13:57 436.000
NO-84 28 May 16:08:05 16:11:43 47° 227° (SW) 16:15:01 435.350 FM
ITAMSAT 1 28 May 16:25:32 16:30:19 39° 262° (W) 16:35:10 435.822/435.867
CUTE-I 28 May 17:00:15 17:01:56 11° 57° (ENE) 17:03:38 437.470
MOZHAYETS 4 28 May 17:05:21 17:09:55 57° 287° (WNW) 17:14:27
ITUPSAT 1 28 May 17:10:28 17:14:46 33° 292° (WNW) 17:19:02 437.325
XW-2F 28 May 17:19:11 17:20:13 11° 63° (ENE) 17:21:15 145.980 - 146.000
XW-2C 28 May 17:21:20 17:22:56 12° 64° (ENE) 17:24:32 145.795 - 145.815
HO-68 28 May 17:27:23 17:28:05 10° 47° (NE) 17:28:46 435.675
DOVE 4 28 May 17:42:18 17:46:38 44° 73° (ENE) 17:50:45 437.250
KKS-1 28 May 17:42:42 17:47:02 51° 100° (E) 17:51:21 437.445
BEESAT 28 May 17:43:33 17:46:33 17° 298° (WNW) 17:49:32 436.000
CUBESAT XI-V 28 May 17:57:03 18:01:44 89° 278° (W) 18:06:20 437.345
LilacSat-2 28 May 17:59:46 18:03:17 35° 72° (ENE) 18:06:51 437.200
AO-7 28 May 18:00:50 18:04:33 13° 272° (W) 18:08:18 .
STARS 28 May 18:07:29 18:11:38 40° 99° (E) 18:15:46 437.465
XW-2D 28 May 18:31:01 18:34:50 86° 76° (ENE) 18:38:41 145.860 - 145.880
CUTE-I 28 May 18:35:49 18:41:06 81° 74° (ENE) 18:46:27 437.470
XW-2B 28 May 18:39:03 18:42:51 78° 258° (WSW) 18:46:43 145.730 - 145.750
NUDT-PHONESAT 28 May 18:42:05 18:45:48 88° 76° (ENE) 18:49:35 437.300
CUTE 1.7 + AOD 2 28 May 18:45:22 18:48:18 18° 66° (ENE) 18:51:14 437.475
XW-2F 28 May 18:50:05 18:53:50 58° 260° (W) 18:57:37 145.980 - 146.000
XW-2C 28 May 18:52:57 18:56:40 50° 261° (W) 19:00:26 145.795 - 145.815
KAITUO 1B 28 May 18:53:48 18:57:33 64° 259° (W) 19:01:20 145.475/437.950
PCSat 28 May 18:55:01 19:00:10 46° 113° (ESE) 19:05:21 145.827
HO-68 28 May 19:07:17 19:14:09 52° 67° (ENE) 19:21:04 435.675
Tancredo 1 28 May 19:18:48 19:21:21 24° 135° (SE) 19:23:55 437.200
KKS-1 28 May 19:20:27 19:23:11 16° 297° (WNW) 19:25:53 437.445
DOVE 4 28 May 19:21:34 19:24:29 17° 267° (W) 19:27:20 437.250
SEEDS 28 May 19:29:10 19:32:59 33° 71° (ENE) 19:36:50 437.485
LilacSat-2 28 May 19:35:15 19:37:41 16° 268° (W) 19:40:08 437.200
CUBESAT XI-V 28 May 19:37:50 19:38:19 10° 301° (WNW) 19:38:48 437.345
STARS 28 May 19:44:32 19:47:41 20° 295° (WNW) 19:50:50 437.465
CUBEBUG 2 28 May 19:45:45 19:49:36 37° 71° (ENE) 19:53:33 437.445
UWE-3 28 May 19:51:35 19:55:06 27° 68° (ENE) 19:58:43 435.000/436.395/437.385
XW-2A 28 May 20:09:56 20:13:11 49° 260° (W) 20:16:30 145.665 - 145.685
ISS 28 May 20:11:48 20:15:02 54° 140° (SE) 20:18:16 437.550
STRAND 1 28 May 20:14:13 20:19:08 43° 99° (E) 20:24:01 437.568
Oscar 11 28 May 20:15:04 20:18:19 21° 66° (ENE) 20:21:34 .
CUTE-I 28 May 20:19:41 20:21:46 12° 271° (W) 20:23:52 437.470
CUTE 1.7 + AOD 2 28 May 20:19:45 20:23:48 41° 262° (W) 20:27:53 437.475
AAUSAT CUBESAT 2 28 May 20:21:31 20:25:38 61° 74° (ENE) 20:29:46 437.432
PCSat 28 May 20:39:06 20:43:45 28° 311° (NW) 20:48:26 145.827
AO-73 28 May 20:43:29 20:47:34 50° 73° (ENE) 20:51:48 145.935
Tancredo 1 28 May 20:54:05 20:56:59 37° 332° (NNW) 20:59:53 437.200
HO-68 28 May 20:55:54 21:02:06 31° 265° (W) 21:08:21 435.675
ZACube-1 28 May 20:58:46 21:02:59 84° 79° (E) 21:07:22 437.345
SEEDS 28 May 21:05:32 21:08:43 21° 266° (W) 21:11:58 437.485
M-CUBED/EXP-1 PRIME 28 May 21:08:44 21:10:30 14° 99° (E) 21:12:17 437.505
EO-88 28 May 21:23:29 21:26:09 19° 68° (ENE) 21:28:50 145.990 - 145.960
CUBEBUG 2 28 May 21:23:32 21:26:23 18° 268° (W) 21:29:18 437.445
UWE-3 28 May 21:27:58 21:31:30 26° 265° (W) 21:35:07 435.000/436.395/437.385
ISS 28 May 21:48:52 21:51:42 26° 338° (NNW) 21:54:32 437.550
Oscar 11 28 May 21:50:12 21:54:12 36° 263° (W) 21:58:14 .
STRAND 1 28 May 21:53:58 21:58:02 24° 295° (WNW) 22:02:06 437.568
DELFI C3 28 May 21:54:03 21:58:00 68° 76° (ENE) 22:01:59 145.870
UNISAT 6 28 May 21:55:34 21:56:54 11° 89° (E) 21:58:15 437.425
AAUSAT CUBESAT 2 28 May 22:00:14 22:01:28 11° 270° (W) 22:02:42 437.432
SO-50 28 May 22:18:59 22:23:32 65° 120° (ESE) 22:28:03 436.795
AO-73 28 May 22:21:55 22:24:08 14° 270° (W) 22:26:25 145.935
ESTCUBE 1 28 May 22:29:30 22:31:33 13° 62° (ENE) 22:33:36 437.505/2401.250
Tancredo 1 28 May 22:31:37 22:33:23 14° 351° (N) 22:35:09 437.200
FO-29 28 May 22:38:15 22:44:29 41° 98° (E) 22:51:21 435.910
M-CUBED/EXP-1 PRIME 28 May 22:42:13 22:45:05 28° 294° (WNW) 22:47:54 437.505
PRISM 28 May 22:52:27 22:56:25 52° 100° (E) 23:00:23 437.425
EO-88 28 May 22:56:32 22:59:39 27° 264° (W) 23:02:50 145.990 - 145.960
TIGRISAT 28 May 22:57:03 23:01:31 46° 99° (E) 23:06:02 435.000
ISS 28 May 23:27:06 23:29:02 14° 358° (N) 23:30:58 437.550
UNISAT 6 28 May 23:29:27 23:34:05 75° 284° (WNW) 23:38:45 437.425
LO-87 28 May 23:30:59 23:34:31 83° 258° (WSW) 23:38:05 145.935 - 145.965
SO-50 29 May 00:01:10 00:04:24 19° 319° (NW) 00:07:38 436.795
ESTCUBE 1 29 May 00:03:15 00:07:46 69° 258° (WSW) 00:12:19 437.505/2401.250
Tancredo 1 29 May 00:08:08 00:10:04 15° 12° (NNE) 00:12:00 437.200
NANOSAT C BR1 29 May 00:12:08 00:15:10 19° 93° (E) 00:18:10 145.865
POLYITAN 1 29 May 00:18:42 00:22:13 24° 95° (E) 00:25:44 437.675
DUCHIFAT 1 29 May 00:21:16 00:24:31 21° 94° (E) 00:27:45 145.980
FO-29 29 May 00:23:29 00:29:26 38° 292° (WNW) 00:36:00 435.910
SPROUT 29 May 00:23:30 00:27:35 49° 73° (ENE) 00:31:41 437.525
50 SAT 29 May 00:26:53 00:29:40 23° 70° (ENE) 00:32:26 437.505
QB50P2 29 May 00:27:15 00:31:08 33° 97° (E) 00:34:59 145.880/145.840
PRISM 29 May 00:29:14 00:31:15 14° 297° (WNW) 00:33:16 437.425
TIGRISAT 29 May 00:34:37 00:37:51 19° 295° (WNW) 00:41:08 435.000
RS-15 29 May 00:44:04 00:53:09 26° 100° (E) 01:02:22 29.354- 29.394
AIST 2D 29 May 00:44:30 00:48:04 70° 284° (WNW) 00:51:36 435.315
VELOX 1 29 May 00:48:05 00:52:30 87° 259° (W) 00:56:56 145.980
UKube-1 29 May 01:02:57 01:06:48 33° 69° (ENE) 01:10:40 .
EO-79 29 May 01:03:11 01:07:29 78° 103° (ESE) 01:11:44 145.935-145.965
ISS 29 May 01:03:47 01:06:26 22° 19° (NNE) 01:09:05 437.550
YUBILEINY 29 May 01:05:06 01:13:26 53° 89° (E) 01:21:50 435.215
DX 1 29 May 01:15:24 01:19:42 66° 74° (ENE) 01:24:01 434.975-435.025
Tancredo 1 29 May 01:43:22 01:46:22 49° 30° (NNE) 01:49:20 437.200
NANOSAT C BR1 29 May 01:47:04 01:50:59 37° 289° (WNW) 01:54:54 145.865
Gurwin Techsat 1B 29 May 01:50:59 01:53:49 14° 90° (E) 01:56:39 435.225
Oscar 19 29 May 01:51:44 01:55:53 24° 94° (E) 01:59:59 437.125/150
POLYITAN 1 29 May 01:54:16 01:57:58 29° 291° (WNW) 02:01:41 437.675
DUCHIFAT 1 29 May 01:56:25 02:00:14 33° 290° (WNW) 02:04:02 145.980
50 SAT 29 May 01:59:56 02:02:28 19° 265° (W) 02:05:01 437.505
SPROUT 29 May 02:01:31 02:03:46 14° 269° (W) 02:06:01 437.525
QB50P2 29 May 02:03:26 02:06:43 22° 293° (WNW) 02:10:01 145.880/145.840
BUGSAT 1 29 May 02:03:43 02:07:53 88° 289° (WNW) 02:12:05 437.445
MOZHAYETS 4 29 May 02:32:11 02:34:52 15° 63° (ENE) 02:37:33
UKube-1 29 May 02:39:31 02:42:52 22° 265° (W) 02:46:14 .
ITUPSAT 1 29 May 02:39:40 02:43:54 33° 68° (ENE) 02:48:10 437.325
ISS 29 May 02:39:56 02:43:14 77° 216° (SW) 02:46:30 437.550
EO-79 29 May 02:41:52 02:42:36 10° 299° (WNW) 02:43:19 145.935-145.965
RS-15 29 May 02:51:54 03:04:03 88° 300° (WNW) 03:16:33 29.354- 29.394
DX 1 29 May 02:55:06 02:56:18 11° 270° (W) 02:57:31 434.975-435.025
O/OREOS (USA 219) 29 May 02:57:02 02:59:49 16° 99° (E) 03:02:35 437.305
YUBILEINY 29 May 03:02:44 03:10:30 35° 290° (WNW) 03:18:23 435.215
BEESAT 29 May 03:10:49 03:15:32 68° 74° (ENE) 03:20:18 436.000
Tancredo 1 29 May 03:19:45 03:21:52 17° 227° (SW) 03:23:58 437.200
CUBESAT XI-V 29 May 03:27:10 03:28:06 11° 60° (ENE) 03:29:02 437.345
Gurwin Techsat 1B 29 May 03:28:58 03:34:17 71° 286° (WNW) 03:39:33 435.225
Oscar 19 29 May 03:30:31 03:35:20 41° 291° (WNW) 03:40:07 437.125/150
PCSat 29 May 03:42:32 03:47:39 40° 53° (NE) 03:52:43 145.827
AO-85 29 May 03:57:24 04:01:04 30° 116° (ESE) 04:04:37 145.980
AO-7 29 May 04:03:49 04:11:26 37° 98° (E) 04:19:00 .
MOZHAYETS 4 29 May 04:06:59 04:11:31 59° 259° (W) 04:16:07
ITUPSAT 1 29 May 04:17:41 04:21:43 27° 265° (W) 04:25:46 437.325
O/OREOS (USA 219) 29 May 04:34:17 04:38:46 51° 296° (WNW) 04:43:15 437.305
ITAMSAT 1 29 May 04:37:31 04:42:45 72° 103° (ESE) 04:47:57 435.822/435.867
KKS-1 29 May 04:40:41 04:44:55 48° 72° (ENE) 04:49:11 437.445
BEESAT 29 May 04:51:43 04:53:46 13° 270° (W) 04:55:50 436.000
BEESAT 2 29 May 04:52:28 04:54:28 14° 109° (ESE) 04:56:30 435.950
CUBESAT XI-V 29 May 05:00:00 05:04:43 89° 51° (NE) 05:09:27 437.345
STARS 29 May 05:04:08 05:08:07 36° 70° (ENE) 05:12:08 437.465
BEESAT 3 29 May 05:04:13 05:08:04 52° 118° (ESE) 05:11:58 437.485
RS-15 29 May 05:07:37 05:18:29 35° 329° (NNW) 05:29:27 29.354- 29.394
SO-50 29 May 05:11:52 05:13:05 11° 34° (NNE) 05:14:17 436.795
PCSat 29 May 05:26:12 05:30:53 30° 251° (WSW) 05:35:33 145.827
AO-85 29 May 05:37:58 05:41:26 26° 312° (NW) 05:44:49 145.980
DOVE 4 29 May 05:43:23 05:43:46 10° 90° (E) 05:44:09 437.250
AO-7 29 May 05:56:22 06:04:21 52° 297° (WNW) 06:12:20 .
XW-2B 29 May 06:13:44 06:14:42 11° 90° (E) 06:15:40 145.730 - 145.750
ITAMSAT 1 29 May 06:18:34 06:21:36 16° 300° (WNW) 06:24:37 435.822/435.867
KKS-1 29 May 06:19:04 06:21:44 16° 268° (W) 06:24:25 437.445
XW-2F 29 May 06:23:18 06:25:21 14° 91° (E) 06:27:25 145.980 - 146.000
XW-2C 29 May 06:26:13 06:28:40 16° 92° (E) 06:31:05 145.795 - 145.815
KAITUO 1B 29 May 06:26:31 06:28:06 12° 91° (E) 06:29:39 145.475/437.950
BEESAT 2 29 May 06:27:51 06:31:45 54° 306° (NW) 06:35:43 435.950
STARS 29 May 06:41:21 06:44:34 20° 266° (W) 06:47:47 437.465
BEESAT 3 29 May 06:43:11 06:45:56 18° 317° (NW) 06:48:44 437.485
SO-50 29 May 06:50:01 06:54:29 60° 54° (NE) 06:58:57 436.795
CUTE-I 29 May 06:52:54 06:57:39 32° 96° (E) 07:02:22 437.470
LilacSat-2 29 May 07:06:31 07:10:19 52° 100° (E) 07:14:05 437.200
DOVE 4 29 May 07:17:42 07:21:52 66° 285° (WNW) 07:26:09 437.250
NO-84 29 May 07:24:33 07:28:07 25° 127° (SE) 07:31:40 435.350 FM
RS-15 29 May 07:26:52 07:36:14 24° 4° (N) 07:45:28 29.354- 29.394
STRAND 1 29 May 07:30:10 07:35:11 63° 73° (ENE) 07:40:15 437.568
XW-2D 29 May 07:37:21 07:41:11 64° 285° (WNW) 07:44:57 145.860 - 145.880
XW-2B 29 May 07:45:26 07:49:12 53° 286° (WNW) 07:52:56 145.730 - 145.750
NUDT-PHONESAT 29 May 07:46:00 07:49:45 67° 285° (WNW) 07:53:28 437.300
AO-7 29 May 07:52:17 07:55:11 12° 318° (NW) 07:58:05 .
M-CUBED/EXP-1 PRIME 29 May 07:53:42 07:57:05 25° 65° (ENE) 08:00:16 437.505
XW-2F 29 May 07:56:04 07:59:41 40° 287° (WNW) 08:03:16 145.980 - 146.000
KAITUO 1B 29 May 07:58:42 08:02:21 45° 287° (WNW) 08:05:57 145.475/437.950
XW-2C 29 May 07:59:26 08:02:59 35° 288° (WNW) 08:06:29 145.795 - 145.815
CUTE 1.7 + AOD 2 29 May 08:04:20 08:08:10 32° 96° (E) 08:11:57 437.475
HO-68 29 May 08:21:59 08:29:01 53° 101° (E) 08:35:59 435.675
SO-50 29 May 08:31:50 08:34:27 15° 251° (WSW) 08:37:04 436.795
CUTE-I 29 May 08:32:54 08:37:39 34° 293° (WNW) 08:42:25 437.470
AO-73 29 May 08:33:50 08:34:38 10° 88° (E) 08:35:26 145.935
LilacSat-2 29 May 08:42:32 08:44:08 12° 296° (WNW) 08:45:44 437.200
ZACube-1 29 May 08:47:37 08:50:39 17° 92° (E) 08:53:41 437.345
SEEDS 29 May 08:47:44 08:51:55 63° 101° (E) 08:56:03 437.485
FO-29 29 May 08:54:39 08:57:17 14° 58° (ENE) 08:59:58 435.910
NO-84 29 May 09:01:13 09:05:31 54° 323° (NW) 09:09:44 435.350 FM
XW-2A 29 May 09:03:58 09:07:19 48° 285° (WNW) 09:10:39 145.665 - 145.685
CUBEBUG 2 29 May 09:11:46 09:16:25 88° 110° (ESE) 09:21:08 437.445
STRAND 1 29 May 09:11:50 09:14:47 15° 269° (W) 09:17:46 437.568
UWE-3 29 May 09:15:56 09:20:31 60° 100° (E) 09:25:08 435.000/436.395/437.385
M-CUBED/EXP-1 PRIME 29 May 09:27:53 09:31:27 26° 258° (WSW) 09:34:47 437.505
Oscar 11 29 May 09:36:49 09:40:54 39° 98° (E) 09:44:57 .
AAUSAT CUBESAT 2 29 May 09:38:35 09:42:43 72° 285° (WNW) 09:46:48 437.432
CUTE 1.7 + AOD 2 29 May 09:40:29 09:43:49 22° 293° (WNW) 09:47:06 437.475
PRISM 29 May 09:41:38 09:45:27 38° 71° (ENE) 09:49:16 437.425
RS-15 29 May 09:41:58 09:53:26 41° 38° (NE) 10:04:22 29.354- 29.394
TIGRISAT 29 May 09:55:58 09:59:57 39° 71° (ENE) 10:04:01 435.000
AO-73 29 May 10:06:47 10:11:21 77° 285° (WNW) 10:15:55 145.935
HO-68 29 May 10:10:14 10:16:24 32° 299° (WNW) 10:22:34 435.675
ZACube-1 29 May 10:22:45 10:27:09 47° 287° (WNW) 10:31:32 437.345
EO-88 29 May 10:24:53 10:27:53 23° 95° (E) 10:30:52 145.990 - 145.960
SEEDS 29 May 10:25:24 10:27:03 12° 297° (WNW) 10:28:41 437.485
UNISAT 6 29 May 10:28:15 10:32:32 84° 258° (WSW) 10:36:57 437.425
FO-29 29 May 10:36:29 10:41:38 76° 257° (WSW) 10:47:03 435.910
NO-84 29 May 10:40:59 10:43:53 17° 342° (NNW) 10:46:43 435.350 FM
CUBEBUG 2 29 May 10:51:14 10:52:20 11° 299° (WNW) 10:53:26 437.445
UWE-3 29 May 10:53:49 10:56:29 15° 296° (WNW) 10:59:10 435.000/436.395/437.385
NANOSAT C BR1 29 May 11:05:07 11:07:29 15° 64° (ENE) 11:09:52 145.865
DELFI C3 29 May 11:05:24 11:09:20 73° 285° (WNW) 11:13:13 145.870
POLYITAN 1 29 May 11:11:50 11:14:51 19° 66° (ENE) 11:17:52 437.675
Oscar 11 29 May 11:13:37 11:16:45 20° 294° (WNW) 11:19:52 .
DUCHIFAT 1 29 May 11:13:49 11:16:27 17° 65° (ENE) 11:19:06 145.980
YUBILEINY 29 May 11:15:16 11:22:25 26° 66° (ENE) 11:29:30 435.215
PRISM 29 May 11:18:05 11:20:51 17° 267° (W) 11:23:38 437.425
AIST 2D 29 May 11:18:47 11:22:04 39° 73° (ENE) 11:25:24 435.315
QB50P2 29 May 11:20:09 11:23:37 25° 68° (ENE) 11:27:06 145.880/145.840
TIGRISAT 29 May 11:33:50 11:36:48 18° 268° (W) 11:39:50 435.000
EO-79 29 May 11:55:25 11:59:31 57° 74° (ENE) 12:03:39 145.935-145.965
ESTCUBE 1 29 May 11:55:59 11:59:38 24° 94° (E) 12:03:16 437.505/2401.250
EO-88 29 May 11:58:34 12:01:28 22° 291° (WNW) 12:04:21 145.990 - 145.960
